Погода в Коронадале

Филиппины     6°29′51″N   124°50′50″E
темп.,
°C
ветер,
м/с
пор.,
м/с
влажн.,
%
обл.,
%
осадки,
мм/ч
давл.,
гПа
погр.,
м
25 мая, ср
ср2523:00+24ююв1189100 0.0 101213
02:00+24юв0189100 0.0 101011
05:00+23ссв0092100 0.0 101112
08:00+26ю0179100 0.0 1012339
11:00+29юв0163100 0.1 1011850
14:00+30ссв1258100 0.1 10081293
17:00+27ссз2279100 0.0 100839
20:00+25св118693 0.0 101012
26 мая, чт
чт2623:00+24ю118746 0.0 101013
02:00+23ссз1190100 0.0 100814
05:00+23св0193100 0.0 100913
08:00+25юв0084100 0.0 1010248
11:00+30ссв116696 0.5 1009798
14:00+24св1292100 1.6 100864
17:00+23св1194100 1.4 100822
20:00+22с2398100 1.6 1010158
27 мая, пт
пт2723:00+22всв0098100 0.1 101042
02:00+22всв1199100 0.1 100967
05:00+22ссв0098100 0.0 100934
08:00+25ююв118477 0.0 1011429
11:00+30ссз2161100 0.3 10091068
14:00+26с248466 2.6 1008227
17:00+26ссз1287100 3.6 100844
20:00+23юз0194100 5.2 101013
28 мая, сб
сб2823:00+22вюв0096100 0.7 101113
02:00+22юв0196100 0.7 100812
05:00+22вюв0096100 0.0 100915
08:00+23юв0094100 0.0 101147
11:00+29всв0164100 0.0 1009721
14:00+28ююв1168100 1.1 1007426
17:00+27ююв0083100 1.9 100816
20:00+24ю119199 3.4 101011
29 мая, вс
вс2923:00+23ссз0095100 4.0 101121
02:00+23св119888 6.3 100929
05:00+22юв119862 0.0 101026
08:00+23ссз2395100 1.8 1013251
11:00+26всв1186100 3.5 1011624
14:00+27с1279100 8.6 1009738
17:00+26с1185100 2.4 100958
20:00+23ссз1193100 2.8 101236